Weather History for Pardubice, Czech Republic

Change the Weather History Date:

Friday, March 1, 2013

  Actual Average Record
Temperature  
Mean Temperature 34 °F -  
Max Temperature 37 °F - - ()
Min Temperature 30 °F - - ()
Degree Days  
Heating Degree Days 30    
Moisture  
Dew Point 29 °F    
Average Humidity 82    
Maximum Humidity 93    
Minimum Humidity 65    
Precipitation  
Precipitation 0.00 in - - ()
Sea Level Pressure  
Sea Level Pressure 30.12 in    
Wind  
Wind Speed 7 mph ()    
Max Wind Speed 13 mph    
Max Gust Speed -    
Visibility 5.0 miles    
Events      
T = Trace of Precipitation, MM = Missing Value Source: Averaged Metar Reports

Daily Weather History Graph

Daily Weather History Graph

Search for Another Location

Airport:

Trip Planner

Search our weather history database for the weather conditions in past years. The results will help you decide how hot, cold, wet, or windy it might be!

Date:

Astronomy

Mar. 01, 2013 Rise Set
Actual Time 6:40 AM CET 5:39 PM CET
Civil Twilight 6:07 AM CET 6:11 PM CET
Nautical Twilight 5:30 AM CET 6:49 PM CET
Astronomical Twilight 4:53 AM CET 7:26 PM CET
Moon 10:24 PM CET (3/1) 7:48 AM CET (3/1)
Length of Visible Light 12h 03m
Length of Day
10h 58m
Waning Gibbous, 85% of the Moon is Illuminated
Mar 1
Waning Gibbous
Mar 4
Last Quarter
Mar 11
New
Mar 19
First Quarter
Mar 27
Full

Hourly Weather History & Observations

Time (CET) Temp. Windchill Dew Point Humidity Pressure Visibility Wind Dir Wind Speed Gust Speed Precip Events Conditions
12:00 AM 35.6 °F 31.7 °F 30.2 °F 81% 30.15 in 5.0 mi WNW 4.6 mph - N/A   Overcast
1:00 AM 35.6 °F 29.2 °F 30.2 °F 81% 30.15 in 5.0 mi WNW 8.1 mph - N/A   Overcast
2:00 AM 35.6 °F 29.2 °F 30.2 °F 81% 30.15 in 5.0 mi WNW 8.1 mph - N/A   Overcast
3:00 AM 33.8 °F 26.4 °F 30.2 °F 87% 30.12 in 5.0 mi WNW 9.2 mph - N/A   Overcast
4:00 AM 33.8 °F 26.4 °F 30.2 °F 87% 30.12 in 5.0 mi West 9.2 mph - N/A   Overcast
5:00 AM 33.8 °F 26.4 °F 30.2 °F 87% 30.12 in 5.0 mi West 9.2 mph - N/A   Overcast
6:00 AM 33.8 °F 27.0 °F 30.2 °F 87% 30.12 in 5.0 mi West 8.1 mph - N/A   Overcast
7:00 AM 33.8 °F 27.7 °F 30.2 °F 87% 30.09 in 3.1 mi WNW 6.9 mph - N/A   Overcast
7:50 AM 33.8 °F 26.4 °F 32.0 °F 93% 30.12 in 2.8 mi West 9.2 mph - N/A   Overcast
8:00 AM 33.8 °F 26.4 °F 30.2 °F 87% 30.12 in 2.5 mi West 9.2 mph - N/A   Drizzle
9:00 AM 33.8 °F 26.4 °F 32.0 °F 93% 30.12 in 2.2 mi WNW 9.2 mph - N/A   Drizzle
9:20 AM 33.8 °F 27.0 °F 30.2 °F 87% 30.12 in 3.7 mi NW 8.1 mph - N/A   Overcast
10:00 AM 33.8 °F 27.0 °F 30.2 °F 87% 30.12 in 5.0 mi WNW 8.1 mph - N/A   Overcast
11:00 AM 33.8 °F 25.8 °F 30.2 °F 87% 30.12 in 3.7 mi WNW 10.4 mph - N/A   Light Drizzle
12:00 PM 35.6 °F 28.6 °F 30.2 °F 81% 30.12 in 5.0 mi West 9.2 mph - N/A   Overcast
1:00 PM 35.6 °F 27.1 °F 32.0 °F 87% 30.12 in 6.2 mi West 12.7 mph - N/A   Overcast
2:00 PM 37.4 °F 30.8 °F 28.4 °F 70% 30.09 in 6.2 mi WNW 9.2 mph - N/A   Overcast
3:00 PM 35.6 °F 28.0 °F 28.4 °F 75% 30.09 in 6.2 mi WNW 10.4 mph - N/A   Overcast
4:00 PM 37.4 °F 29.3 °F 26.6 °F 65% 30.09 in 6.2 mi WNW 12.7 mph - N/A   Overcast
5:00 PM 35.6 °F 28.0 °F 26.6 °F 70% 30.09 in 6.2 mi WNW 10.4 mph - N/A   Overcast
6:00 PM 35.6 °F 29.2 °F 26.6 °F 70% 30.12 in 6.2 mi WNW 8.1 mph - N/A   Overcast
7:00 PM 35.6 °F 29.2 °F 28.4 °F 75% 30.12 in 6.2 mi West 8.1 mph - N/A   Overcast
8:00 PM 33.8 °F 27.7 °F 26.6 °F 75% 30.12 in 6.2 mi West 6.9 mph - N/A   Scattered Clouds
9:00 PM 32.0 °F 24.8 °F 28.4 °F 87% 30.15 in 6.2 mi West 8.1 mph - N/A   Partly Cloudy
10:00 PM 32.0 °F 27.5 °F 26.6 °F 80% 30.18 in - WNW 4.6 mph - N/A   Clear
11:00 PM 30.2 °F - 26.6 °F 86% 30.18 in - WSW 2.3 mph - N/A   Clear